Tracking 25710 objects as of 4-Jul-2022
HD Live streaming from Space Station
objects crossing your sky now

INTELSAT 602

Track INTELSAT 602 now!
INTELSAT 602 is classified as:


NORAD ID: 20315
Int'l Code: 1989-087A
Perigee: 36,127.6 km
Apogee: 36,176.1 km
Inclination: 13.5 °
Period: 1,454.4 minutes
Semi major axis: 42522 km
RCS: 19.9526 m2 (large)
Launch date: October 27, 1989
Source: International Telecommunications Satellite Organization (ITSO)
Launch site: FRENCH GUIANA (FRGUI)

Inclined orbit; Indian Ocean region; C-band and Ku-band broadcasting.
aabbcc
Your satellite tracking list
Your tracking list is empty




NASA's NSSDC Master Catalog

Two Line Element Set (TLE):
1 20315U 89087A   22185.30882597 -.00000060  00000-0  00000-0 0  9990
2 20315  13.5209  17.6468 0005709 114.8273 100.4537  0.99007868117020
Source of the keplerian elements: AFSPC